Location: Grust
(42.8833°N, 0.0333°W)
Time: 14:39:12
(UTC+00:00)

Cosmos 2058 Rocket - Pass Details

Date: 25 October 2020
Orbit: 610 x 639 km, 82.5° (Epoch: 24 November)

Event Time Altitude Azimuth Distance (km) Brightness Sun altitude
Rises 18:37:27 0° 195° (SSW) 2,908 6.7 -18.2°
Reaches altitude 10° 18:39:41 10° 199° (SSW) 2,009 5.9 -18.6°
Maximum altitude 18:44:06 62° 280° (W) 719 3.6 -19.4°
Drops below altitude 10° 18:48:35 10° 2° (N) 2,037 5.7 -20.2°
Sets 18:50:52 0° 5° (N) 2,953 6.5 -20.6°
